Temp
62 61 61 61 61 61 60 60 60 60 60 60 60 60 60 60 60 60 60 60 60 60 60 61 61 61 64 68 73 83 79 79 82 82 83 81 77 77 75 78 80 76 80 85 87 87 86
61 61 61 61 61 61 61 61 60 60 60 60 60 59 59 59 59 59 59 59 60 60 60 61 61 61 66 65 83 81 80 79 81 81 81 83 82 83 80 79 79 82 83 84 87 87 88
61 61 61 61 61 61 60 61 60 60 60 59 59 59 59 59 59 59 59 59 59 60 61 62 62 63 65 73 83 82 80 81 82 83 81 85 85 84 83 78 84 83 78 84 86 86 85
61 61 61 61 61 60 60 60 60 60 59 59 59 59 59 58 58 59 58 58 59 61 63 63 63 64 68 79 80 80 80 82 84 85 85 87 86 82 80 83 81 78 79 75 83 82 83
61 61 61 61 61 60 60 59 59 59 59 59 58 58 58 58 58 58 57 57 61 64 63 64 63 65 68 79 78 83 82 81 82 81 83 87 85 80 79 75 74 74 72 73 77 84 81
61 61 61 61 60 60 59 59 59 59 59 58 58 58 58 58 58 57 56 58 63 64 65 67 69 62 74 72 78 82 84 82 80 80 79 79 77 74 74 73 65 69 71 74 74 81 81
60 60 60 60 60 59 59 59 59 58 58 58 58 58 58 57 57 56 58 67 67 67 66 65 65 64 70 77 81 80 83 80 81 78 71 74 70 66 71 74 77 75 74 75 77 81 80
60 60 60 60 59 59 59 59 58 58 58 58 58 58 57 57 56 56 59 65 61 62 56 64 64 64 69 72 68 76 82 76 76 70 72 69 66 73 74 75 74 74 72 72 75 77 79
60 60 59 59 59 59 58 58 58 58 58 58 58 57 57 56 55 59 58 63 64 64 57 64 68 67 69 70 67 71 77 77 74 69 70 68 70 75 71 71 71 73 72 72 73 74 76
60 59 59 59 59 58 58 58 58 58 58 57 57 57 56 55 59 55 63 63 62 62 56 63 68 70 71 69 68 76 78 77 73 70 70 70 75 71 71 70 74 69 75 76 74 73 69
59 59 59 59 58 58 58 58 57 57 57 57 57 56 56 55 54 59 63 62 64 63 47 64 68 78 72 68 68 72 79 78 70 70 70 68 68 70 68 72 75 72 76 75 75 73 70
59 59 59 58 58 58 58 57 57 57 57 56 56 56 55 53 53 59 61 61 65 55 45 59 66 62 64 65 67 69 72 76 74 70 70 73 75 74 75 75 78 78 74 72 72 73 63
59 59 59 58 58 58 58 57 57 56 56 56 55 54 54 57 63 60 61 66 55 49 59 54 56 60 58 57 61 62 62 59 58 59 61 67 70 75 75 72 75 76 72 61 58 60 62
59 59 58 58 57 57 58 57 57 56 56 55 54 53 55 59 61 59 64 62 46 50 52 59 57 57 53 55 58 59 57 55 59 56 61 60 57 70 75 73 70 71 72 63 53 58 64
59 59 58 58 57 57 57 57 56 56 55 54 52 59 61 66 62 61 64 52 48 50 55 55 56 52 52 54 54 56 53 52 56 56 54 58 60 70 73 76 76 66 64 77 65 62 64
59 58 58 57 57 56 58 57 57 56 55 53 53 56 63 64 63 66 59 46 51 56 57 56 49 50 48 50 53 54 52 53 53 59 59 55 55 68 71 76 73 74 77 64 65 55 55
58 58 58 57 57 56 58 58 57 55 54 52 56 61 66 63 65 62 51 50 53 59 59 55 50 49 48 48 50 50 49 52 56 57 59 58 55 63 66 68 68 68 67 67 72 67 61
58 58 57 57 56 56 57 57 56 54 52 52 53 57 64 64 58 49 52 50 50 56 59 56 55 52 50 50 49 49 48 51 57 57 53 56 54 55 63 68 68 70 71 72 64 58 64
58 58 57 57 56 56 57 57 55 53 51 50 48 50 63 62 51 50 50 52 54 55 54 54 52 54 53 50 47 49 50 54 57 56 52 57 54 53 59 65 67 65 67 70 69 68 64
58 58 57 57 56 56 57 56 55 54 53 53 51 52 55 54 49 48 46 46 49 56 54 54 52 54 51 49 50 47 49 54 56 55 55 55 53 50 53 56 59 59 63 65 69 65 67
58 58 57 57 56 57 57 57 56 54 53 55 49 44 45 44 46 46 47 46 45 45 52 54 52 51 50 44 45 45 49 52 55 52 54 53 50 51 56 58 58 59 61 64 64 69 66
58 58 57 57 56 57 57 57 56 54 52 53 49 49 47 44 43 46 44 43 43 46 47 47 47 48 50 47 47 45 47 49 48 53 51 53 51 50 53 61 60 58 63 64 65 65 67
58 57 57 56 56 57 57 57 56 53 52 51 51 50 52 40 43 45 44 44 45 47 50 51 49 48 48 49 52 54 55 54 52 49 49 49 47 49 50 56 57 55 62 64 63 63 63
57 57 56 56 57 57 57 57 56 54 52 52 50 51 49 41 45 44 44 46 46 47 45 50 51 48 51 55 54 51 51 51 50 51 53 47 45 47 51 54 45 59 64 66 63 61 63
57 56 56 56 57 58 57 57 56 54 52 52 50 50 48 43 47 45 45 45 47 49 47 48 52 52 54 51 45 42 45 44 46 49 49 51 48 44 47 52 55 56 57 57 58 58 63
57 56 56 56 57 58 57 58 56 54 52 52 51 51 49 44 43 46 45 44 43 44 47 48 54 55 54 48 43 34 37 41 41 42 46 48 49 45 45 47 46 54 57 60 60 56 61
56 56 56 56 56 57 57 57 56 55 52 52 50 52 50 44 49 47 45 46 47 45 44 45 49 49 51 37 34 32 38 44 38 40 36 37 41 40 42 44 53 54 56 62 52 54 59
56 56 55 55 56 57 57 57 57 56 54 53 48 52 50 46 49 49 50 46 46 47 44 45 45 46 43 35 33 37 34 42 42 44 41 41 41 40 42 42 46 53 57 56 54 59 61
56 55 55 55 56 56 56 56 57 56 55 53 47 53 53 48 49 52 54 56 55 54 51 48 46 43 42 35 34 37 34 38 42 35 48 41 49 47 47 50 52 53 51 56 58 58 61
MSLP
1025.01 1024.65 1024.28 1023.94 1023.56 1023.15 1022.73 1022.30 1021.87 1021.45 1021.00 1020.50 1019.92 1019.40 1018.90 1018.33 1017.73 1017.05 1016.38 1015.79 1015.17 1014.37 1013.92 1013.48 1013.40 1013.29 1012.94 1011.84 1009.14 1007.81 1007.56 1007.87 1008.16 1008.42 1008.08 1008.04 1008.31 1008.39 1008.08 1007.83 1007.66 1007.20 1006.49 1005.93 1005.47 1005.35 1005.41
1025.04 1024.67 1024.27 1023.85 1023.46 1023.08 1022.65 1022.20 1021.74 1021.32 1020.81 1020.28 1019.76 1019.21 1018.67 1018.02 1017.30 1016.54 1015.83 1015.35 1014.64 1013.86 1013.30 1013.04 1013.00 1013.28 1012.65 1010.77 1008.11 1008.24 1007.96 1008.15 1007.98 1008.10 1008.08 1007.97 1007.79 1007.84 1007.66 1007.34 1007.03 1006.50 1006.08 1005.50 1005.02 1004.90 1005.14
1025.11 1024.73 1024.36 1023.99 1023.59 1023.22 1022.77 1022.23 1021.69 1021.18 1020.70 1020.15 1019.62 1019.05 1018.37 1017.71 1016.79 1015.93 1015.19 1014.67 1014.02 1013.18 1012.58 1012.40 1012.60 1012.90 1011.80 1008.91 1008.06 1008.22 1008.38 1008.06 1008.13 1008.08 1007.90 1008.04 1007.91 1007.60 1007.41 1007.10 1006.70 1006.24 1005.76 1005.02 1004.50 1004.38 1004.62
1025.24 1024.85 1024.43 1023.96 1023.48 1023.04 1022.65 1022.17 1021.63 1021.09 1020.56 1019.99 1019.39 1018.83 1018.10 1017.33 1016.46 1015.54 1014.68 1013.97 1013.11 1012.36 1012.00 1012.10 1012.54 1012.59 1010.24 1008.25 1008.20 1007.98 1008.00 1007.88 1008.02 1008.22 1008.06 1008.00 1008.06 1007.88 1007.56 1007.23 1006.52 1005.96 1005.53 1004.72 1004.23 1004.36 1004.54
1025.32 1024.84 1024.37 1023.92 1023.50 1023.09 1022.60 1022.10 1021.58 1020.98 1020.44 1019.84 1019.24 1018.55 1017.82 1017.02 1016.18 1015.22 1014.26 1013.38 1012.57 1012.03 1012.20 1012.42 1012.60 1011.94 1009.28 1008.05 1007.82 1007.42 1007.52 1007.30 1007.57 1008.00 1008.21 1007.99 1008.04 1007.92 1007.76 1007.13 1006.32 1005.73 1004.65 1004.49 1004.22 1004.29 1004.55
1025.22 1024.77 1024.31 1023.84 1023.31 1022.84 1022.39 1021.88 1021.36 1020.83 1020.16 1019.54 1018.95 1018.25 1017.45 1016.70 1015.77 1014.77 1013.72 1012.98 1012.49 1012.17 1012.55 1012.39 1012.00 1011.78 1008.90 1008.25 1007.75 1007.24 1007.15 1007.28 1007.11 1007.44 1007.76 1007.96 1007.88 1007.59 1007.44 1006.85 1005.36 1005.14 1004.72 1004.44 1003.99 1004.18 1004.55
1025.13 1024.71 1024.22 1023.73 1023.24 1022.66 1022.22 1021.66 1021.12 1020.57 1019.97 1019.28 1018.60 1017.88 1017.08 1016.35 1015.52 1014.55 1013.52 1012.76 1012.68 1012.16 1012.24 1011.52 1011.11 1010.42 1009.04 1008.40 1007.79 1007.04 1006.90 1007.00 1006.78 1006.98 1007.02 1007.60 1007.28 1006.55 1006.37 1006.40 1005.94 1005.41 1004.88 1004.35 1004.38 1004.29 1004.49
1024.97 1024.54 1024.06 1023.54 1022.99 1022.54 1021.96 1021.40 1020.83 1020.34 1019.77 1019.00 1018.32 1017.59 1016.82 1016.00 1015.18 1014.42 1013.97 1013.44 1014.31 1014.83 1013.25 1011.11 1010.55 1010.14 1009.33 1009.01 1008.00 1006.85 1006.87 1006.71 1006.41 1006.33 1006.94 1007.44 1006.52 1006.41 1006.50 1006.27 1005.92 1005.70 1005.16 1004.73 1004.75 1004.64 1004.73
1025.00 1024.47 1023.84 1023.28 1022.77 1022.20 1021.68 1021.13 1020.69 1020.08 1019.54 1018.86 1018.04 1017.28 1016.59 1015.69 1014.98 1014.49 1014.48 1014.23 1014.60 1014.58 1013.60 1010.57 1009.60 1009.20 1009.04 1008.88 1007.99 1006.98 1006.82 1006.39 1006.11 1006.26 1006.36 1006.22 1006.16 1006.27 1006.50 1006.17 1005.75 1005.40 1005.09 1004.88 1004.70 1004.98 1005.28
1024.80 1024.24 1023.78 1023.17 1022.55 1022.01 1021.47 1021.00 1020.45 1019.85 1019.23 1018.66 1017.84 1017.30 1016.68 1015.66 1014.95 1015.30 1014.50 1014.52 1014.54 1014.47 1012.85 1010.31 1009.03 1008.76 1008.75 1008.66 1007.82 1007.13 1006.71 1006.52 1006.25 1006.05 1006.38 1006.22 1006.12 1006.16 1006.09 1005.65 1005.50 1004.95 1005.25 1005.02 1004.93 1004.87 1004.64
1024.49 1024.02 1023.52 1023.06 1022.41 1021.76 1021.30 1020.74 1020.12 1019.59 1018.95 1018.28 1017.57 1016.98 1016.61 1016.31 1015.71 1015.15 1014.68 1014.40 1014.10 1014.18 1011.92 1010.17 1008.79 1008.54 1008.58 1008.58 1008.16 1007.25 1006.94 1006.48 1006.20 1006.19 1006.45 1005.85 1005.90 1005.77 1005.70 1005.27 1005.40 1004.83 1005.23 1005.09 1004.92 1004.74 1005.02
1024.31 1023.83 1023.35 1022.89 1022.43 1021.74 1021.08 1020.51 1019.80 1019.30 1018.69 1017.83 1017.08 1016.56 1016.28 1016.14 1015.93 1014.77 1014.42 1014.08 1013.74 1013.01 1011.31 1010.17 1009.47 1009.34 1008.93 1008.96 1008.56 1008.20 1007.45 1007.24 1007.22 1006.80 1006.54 1005.92 1005.96 1005.66 1005.14 1005.46 1005.22 1005.20 1005.30 1005.39 1005.45 1004.88 1004.53
1024.10 1023.66 1023.21 1022.71 1022.27 1021.72 1020.91 1020.26 1019.54 1018.77 1018.10 1017.22 1016.35 1015.83 1015.63 1015.63 1015.05 1014.70 1014.19 1013.37 1012.98 1012.24 1011.94 1011.44 1010.80 1010.57 1010.47 1010.25 1009.68 1009.36 1009.14 1009.24 1009.08 1008.22 1007.24 1006.61 1005.93 1005.47 1005.30 1005.12 1005.40 1005.08 1004.83 1004.70 1004.94 1004.44 1003.31
1023.88 1023.46 1023.00 1022.58 1022.06 1021.54 1020.84 1020.02 1019.36 1018.73 1017.92 1017.16 1016.24 1015.61 1015.54 1015.14 1014.74 1014.58 1013.70 1013.00 1012.54 1012.82 1012.41 1012.22 1011.97 1011.60 1011.55 1011.68 1011.13 1010.63 1010.71 1010.79 1010.92 1010.30 1008.54 1007.25 1006.33 1005.42 1005.08 1004.60 1004.52 1004.72 1004.41 1003.74 1003.42 1003.31 1003.20
1023.72 1023.37 1022.94 1022.44 1021.87 1021.30 1020.74 1019.99 1019.18 1018.38 1017.74 1016.86 1015.87 1015.60 1015.19 1014.50 1014.40 1014.28 1013.40 1012.92 1013.24 1013.26 1013.17 1012.72 1012.55 1012.42 1012.37 1012.46 1012.33 1011.78 1012.45 1012.82 1012.61 1012.07 1010.59 1008.64 1006.85 1005.64 1004.94 1004.62 1004.58 1004.86 1004.55 1004.34 1004.12 1004.36 1003.17
1023.48 1023.17 1022.80 1022.33 1021.68 1021.12 1020.60 1019.95 1019.10 1018.28 1017.59 1017.01 1016.40 1015.65 1014.85 1014.54 1014.32 1013.74 1013.44 1013.93 1014.11 1013.98 1013.63 1013.32 1013.20 1013.71 1013.31 1013.24 1012.80 1012.66 1013.40 1014.43 1013.73 1013.10 1012.30 1010.78 1008.36 1006.15 1005.09 1004.76 1004.91 1004.18 1004.31 1004.72 1004.34 1003.39 1002.37
1023.22 1022.95 1022.62 1022.24 1021.66 1021.04 1020.53 1019.98 1019.27 1018.42 1017.42 1016.80 1016.39 1015.42 1014.70 1014.50 1014.18 1013.71 1014.22 1014.80 1014.58 1014.37 1014.12 1013.92 1014.06 1014.22 1014.51 1014.36 1014.26 1014.13 1014.61 1015.24 1014.65 1013.66 1012.85 1011.56 1009.86 1007.02 1005.93 1004.78 1004.23 1004.73 1004.31 1004.27 1003.59 1003.26 1001.71
1023.11 1022.80 1022.40 1022.01 1021.52 1021.02 1020.44 1019.93 1019.31 1018.74 1017.66 1016.93 1016.75 1015.59 1015.08 1014.70 1014.54 1015.46 1015.28 1015.61 1015.48 1014.83 1014.59 1014.58 1014.78 1014.92 1015.03 1015.11 1014.92 1015.06 1015.24 1015.52 1015.55 1014.70 1013.52 1012.62 1010.88 1008.04 1006.18 1005.71 1005.49 1004.76 1003.82 1003.64 1002.98 1003.08 1002.51
1022.93 1022.60 1022.20 1021.89 1021.46 1021.04 1020.48 1019.94 1019.49 1018.99 1018.60 1018.32 1017.66 1016.88 1015.53 1015.11 1015.48 1016.06 1016.21 1015.88 1015.76 1015.35 1015.26 1015.21 1015.34 1015.50 1015.73 1015.68 1015.84 1015.83 1016.03 1016.30 1015.98 1015.24 1014.53 1013.39 1011.58 1009.14 1006.94 1006.38 1005.94 1005.10 1004.72 1004.06 1003.60 1003.09 1001.73
1022.72 1022.46 1022.14 1021.82 1021.44 1020.92 1020.50 1020.00 1019.63 1019.17 1018.84 1018.62 1018.04 1017.39 1016.87 1016.84 1017.81 1017.18 1016.99 1016.78 1016.26 1016.14 1016.06 1016.01 1016.08 1016.18 1016.24 1016.30 1016.50 1016.45 1016.42 1016.44 1016.32 1015.89 1015.31 1014.38 1012.65 1010.92 1008.70 1007.67 1007.41 1006.16 1005.34 1004.73 1003.84 1002.80 1001.96
1022.46 1022.23 1022.00 1021.64 1021.28 1020.94 1020.45 1020.07 1019.70 1019.22 1018.90 1018.70 1018.86 1019.20 1019.36 1018.71 1018.48 1018.22 1017.91 1017.69 1017.16 1016.88 1016.82 1016.72 1016.44 1016.53 1016.58 1016.84 1017.05 1016.94 1017.04 1016.77 1016.52 1016.48 1015.72 1014.97 1013.14 1011.79 1010.08 1008.96 1008.22 1007.14 1006.11 1005.22 1004.46 1003.52 1002.49
1022.10 1021.88 1021.70 1021.39 1021.09 1020.78 1020.46 1020.07 1019.81 1019.48 1019.06 1018.94 1019.38 1019.33 1019.83 1019.71 1019.48 1018.88 1018.68 1018.54 1018.14 1017.89 1017.70 1017.34 1017.28 1017.38 1017.30 1017.25 1017.54 1017.55 1017.64 1017.52 1017.10 1016.74 1016.34 1015.87 1013.97 1012.59 1010.25 1008.72 1008.00 1007.24 1006.38 1005.80 1005.25 1004.76 1004.10
1021.82 1021.72 1021.52 1021.35 1021.02 1020.64 1020.46 1020.08 1019.85 1019.51 1019.11 1019.46 1020.01 1020.14 1019.52 1020.20 1019.82 1019.39 1019.37 1019.09 1018.74 1018.54 1018.48 1018.18 1018.12 1018.00 1017.96 1018.25 1018.23 1018.06 1017.99 1017.90 1017.78 1017.58 1016.98 1016.40 1015.23 1013.30 1010.60 1009.45 1008.44 1007.36 1006.36 1006.01 1005.97 1006.04 1005.78
1021.30 1021.22 1021.16 1021.08 1020.90 1020.58 1020.36 1020.11 1019.91 1019.80 1019.53 1019.87 1020.28 1020.10 1019.60 1020.09 1019.92 1019.81 1019.70 1019.47 1019.24 1019.14 1018.96 1018.74 1018.66 1018.57 1019.00 1018.96 1018.90 1018.77 1018.39 1017.94 1017.97 1017.58 1017.61 1016.89 1016.14 1014.59 1011.54 1010.02 1008.73 1007.58 1007.42 1006.80 1006.92 1007.27 1007.29
1020.90 1020.81 1020.83 1020.64 1020.64 1020.46 1020.31 1020.10 1020.06 1020.04 1019.91 1019.99 1020.34 1020.20 1019.88 1019.86 1020.12 1020.05 1019.92 1019.89 1019.70 1019.59 1019.46 1019.19 1018.99 1019.26 1019.18 1018.99 1018.72 1018.27 1017.85 1017.57 1017.10 1017.13 1017.48 1017.34 1016.65 1015.08 1012.53 1010.24 1009.23 1008.75 1008.66 1008.61 1008.28 1008.28 1008.37
1020.70 1020.66 1020.60 1020.46 1020.38 1020.29 1020.17 1020.03 1020.01 1020.12 1020.19 1020.27 1020.50 1020.59 1020.35 1020.26 1020.34 1020.43 1020.32 1020.35 1020.09 1019.79 1019.46 1019.35 1019.41 1019.49 1019.38 1019.32 1019.19 1018.76 1017.75 1017.14 1016.79 1017.33 1017.59 1017.58 1017.25 1016.29 1013.84 1011.09 1009.28 1009.48 1010.07 1010.12 1009.88 1009.12 1009.30
1020.38 1020.47 1020.48 1020.28 1020.14 1020.04 1020.00 1019.89 1019.95 1020.12 1020.22 1020.35 1020.73 1020.70 1020.57 1020.52 1020.53 1020.58 1020.46 1020.37 1020.50 1020.36 1020.08 1020.01 1019.73 1019.65 1019.86 1020.17 1020.02 1019.34 1017.93 1017.58 1016.62 1016.13 1017.25 1017.65 1017.22 1015.95 1014.74 1012.55 1010.57 1010.97 1011.02 1010.57 1010.66 1010.88 1010.30
1020.25 1020.27 1020.23 1020.05 1019.96 1019.95 1019.96 1019.88 1019.92 1020.17 1020.34 1020.54 1021.12 1021.02 1020.86 1020.73 1020.68 1020.61 1020.62 1020.38 1020.38 1020.26 1019.95 1020.29 1020.23 1020.21 1020.36 1020.62 1020.48 1019.64 1018.82 1017.54 1016.58 1016.11 1016.12 1016.05 1015.76 1015.58 1015.44 1013.53 1011.93 1012.01 1011.40 1011.19 1011.84 1011.35 1010.94
1019.84 1019.92 1020.02 1019.87 1019.79 1019.88 1019.95 1019.94 1019.92 1020.14 1020.37 1020.62 1021.03 1021.19 1021.16 1020.97 1020.81 1020.80 1020.37 1020.09 1019.94 1019.92 1020.08 1020.32 1019.93 1020.21 1020.37 1020.72 1020.83 1020.25 1019.47 1018.31 1016.75 1016.17 1016.16 1015.86 1014.70 1014.31 1014.53 1013.22 1013.32 1013.03 1013.03 1013.02 1012.58 1011.88 1011.42
Wind_Speed
17 17 17 18 18 19 19 20 20 20 20 21 21 21 22 22 22 24 24 24 23 23 20 18 13 9 4 2 10 8 6 11 13 9 14 11 15 7 7 6 8 12 10 10 12 9 3
17 17 17 18 18 18 19 19 20 20 21 21 22 23 23 24 24 25 25 24 23 22 21 16 8 4 3 6 2 7 9 9 9 13 9 8 10 7 5 4 7 2 8 14 10 11 8
17 17 18 19 19 20 20 21 21 21 21 22 22 23 24 25 26 26 26 25 24 23 18 8 8 5 3 13 3 6 2 4 8 13 11 9 3 12 5 4 5 7 8 8 9 7 8
17 18 18 19 19 19 20 21 22 22 22 22 23 24 24 25 26 27 27 26 25 13 4 8 13 3 8 3 3 9 4 5 6 10 1 8 3 2 3 5 3 4 4 7 4 5 7
17 18 19 19 20 19 20 21 21 22 21 21 22 23 24 25 26 26 26 26 12 5 10 15 5 3 7 4 4 3 4 4 8 6 8 5 8 7 4 6 5 2 5 8 7 7 8
17 18 19 20 20 20 20 21 21 23 21 21 22 23 23 25 26 26 28 18 6 8 5 4 2 4 4 0 5 8 3 5 4 11 8 4 3 7 9 10 11 5 8 3 5 8 14
18 19 20 20 21 21 21 21 21 21 21 21 22 23 24 25 27 27 15 2 3 2 3 5 1 5 7 7 7 3 1 6 7 8 9 6 7 13 17 15 9 5 5 7 2 3 9
18 18 19 20 20 20 20 20 20 21 21 21 22 22 24 25 25 24 4 6 5 3 9 5 8 7 9 5 5 3 3 7 7 9 9 6 15 12 9 13 14 9 5 5 2 1 9
18 18 18 19 19 19 19 19 20 19 21 22 23 21 23 24 28 3 4 9 4 3 5 6 3 3 3 4 3 3 2 5 8 9 12 12 1 11 11 12 13 10 9 5 2 5 3
17 17 18 19 19 19 20 20 20 20 21 22 23 21 20 24 1 4 2 3 7 5 3 7 3 4 0 2 1 3 2 2 3 13 9 8 6 10 9 13 13 15 7 6 3 4 4
16 17 17 18 19 19 19 20 21 21 21 22 23 23 19 11 6 3 4 8 2 4 2 9 5 1 4 4 7 4 4 2 5 7 7 7 10 13 11 13 10 6 9 5 2 3 2
16 16 17 18 20 19 19 20 21 21 21 23 24 24 20 2 2 5 9 9 4 4 1 4 6 9 5 9 6 9 5 6 3 3 2 9 2 7 15 6 12 12 8 4 3 3 8
15 16 16 17 18 19 20 19 20 21 22 23 24 24 6 3 3 5 8 2 3 2 4 7 6 7 3 9 9 8 9 13 6 8 11 3 7 4 3 15 8 13 9 6 7 8 9
15 15 15 16 17 18 20 20 20 21 22 25 26 8 4 3 6 7 3 2 2 2 4 3 6 2 6 10 7 8 5 6 13 6 3 13 9 10 8 7 11 15 17 6 12 13 12
14 15 15 16 16 18 17 20 20 20 21 24 17 2 1 7 2 1 1 2 3 2 2 5 1 4 5 5 5 3 9 8 9 11 3 5 11 2 6 6 12 7 10 10 2 1 6
13 14 14 15 15 17 20 19 20 21 22 21 4 2 3 12 1 1 3 3 1 2 3 0 3 3 5 9 3 4 5 8 8 11 3 6 5 5 0 7 2 7 13 10 5 8 11
12 13 13 14 15 16 18 19 18 19 22 13 2 1 5 9 3 4 4 2 1 3 1 4 3 3 3 4 6 4 5 5 9 11 4 9 3 5 4 10 15 7 8 5 8 6 13
11 12 12 13 15 16 14 15 15 15 22 7 3 1 6 6 2 2 2 2 5 4 4 4 4 4 2 3 3 3 3 4 10 8 7 7 5 5 4 4 4 4 14 14 10 11 3
11 12 11 13 14 16 13 15 14 12 10 3 3 3 3 5 2 2 1 3 5 5 6 2 3 1 1 2 0 3 4 1 11 8 7 7 3 4 7 6 4 2 2 5 4 2 16
10 11 11 12 14 14 13 13 13 11 9 1 0 1 4 5 2 2 2 3 2 6 4 3 3 2 2 3 5 2 4 4 9 7 7 5 2 5 4 6 6 2 3 3 10 13 10
9 9 10 11 12 13 12 12 11 11 9 1 4 3 2 3 5 4 1 1 2 3 6 9 3 4 2 3 1 2 4 6 5 8 5 4 5 3 9 12 8 8 9 5 8 7 15
9 8 9 10 11 11 10 11 10 11 8 3 2 1 2 2 2 2 4 4 4 3 4 3 3 3 2 1 3 1 2 2 3 4 5 6 2 4 6 10 6 10 9 9 8 5 9
8 8 8 10 10 9 9 9 9 10 5 2 1 1 1 3 2 1 2 2 4 1 4 5 4 1 3 4 4 5 5 5 4 4 5 5 5 4 5 4 6 8 10 8 6 5 4
6 6 7 8 10 7 8 8 6 7 6 2 1 1 1 3 1 3 2 1 3 4 1 1 3 2 2 2 2 2 6 9 9 11 7 4 4 3 5 2 8 6 5 1 11 8 6
5 5 6 6 8 6 6 7 5 3 5 3 1 0 1 4 3 3 2 4 3 4 2 3 3 3 4 1 3 4 4 5 7 12 12 12 5 5 6 9 2 5 4 3 2 5 10
5 5 5 5 6 4 5 4 4 4 5 3 2 1 2 3 3 3 2 1 1 1 2 1 2 2 1 1 1 3 4 2 4 8 3 10 10 4 4 8 11 6 6 5 3 6 12
4 5 5 4 5 4 4 2 5 6 5 2 2 3 2 2 3 4 2 2 2 1 2 2 4 1 2 1 3 6 5 3 7 7 7 7 7 14 9 7 2 8 9 4 8 5 12
4 4 4 4 4 3 2 4 5 7 6 2 2 2 1 1 2 5 4 5 5 3 1 3 2 2 1 4 3 3 3 5 6 4 7 11 11 8 7 7 8 12 3 5 5 5 8
4 4 5 4 4 4 3 4 4 8 7 3 2 2 1 0 3 3 6 11 7 1 2 3 4 7 5 3 2 2 3 4 5 4 9 8 4 5 6 3 5 5 8 4 4 5 7
Wind_Direction
8 6 4 2 1 359 356 352 351 350 348 345 342 339 336 333 329 325 322 322 317 311 309 308 308 308 302 277 258 346 89 146 157 172 174 162 168 170 193 208 214 238 264 271 261 271 245
3 1 360 358 356 355 352 349 348 347 345 343 340 338 335 332 330 326 321 321 315 308 304 300 284 243 195 258 116 69 83 132 167 178 175 179 191 177 198 234 211 317 249 267 272 252 229
357 355 354 353 352 351 348 346 345 345 343 341 339 335 334 332 329 326 321 321 313 304 300 281 192 192 198 247 77 304 272 191 167 187 181 193 222 193 175 251 285 285 282 286 252 249 204
352 352 351 349 347 346 344 344 343 341 340 339 336 334 332 330 327 323 321 321 315 308 320 133 151 199 252 245 303 287 198 234 192 193 243 187 194 102 259 312 263 246 222 250 155 178 180
350 349 347 346 345 344 342 341 340 340 337 334 333 332 330 327 324 323 322 322 312 77 114 129 148 224 260 306 301 334 209 230 147 150 204 93 167 213 218 244 247 225 237 212 170 180 163
345 344 343 344 343 341 340 339 339 338 335 333 332 331 329 327 325 327 325 316 122 114 142 232 244 248 252 93 309 296 231 197 158 133 120 181 133 177 193 202 212 201 211 179 196 176 180
342 342 342 342 339 338 339 337 335 335 334 330 330 330 328 327 326 330 330 215 315 60 37 270 275 298 282 320 269 247 220 163 137 159 173 184 196 204 195 199 218 191 211 194 131 192 188
338 338 337 336 336 336 335 333 333 333 330 328 327 328 327 326 327 323 289 69 74 2 307 258 253 254 276 288 280 237 204 185 194 171 144 157 226 208 204 193 210 222 209 186 150 0 209
336 334 334 334 336 335 333 333 333 330 327 326 323 328 327 326 323 346 356 114 46 154 261 295 231 264 331 161 263 269 238 170 183 175 184 202 304 187 186 191 194 212 219 186 165 106 122
330 329 332 333 336 335 335 335 332 331 331 325 322 327 328 330 240 341 96 66 329 177 285 8 33 80 27 282 260 257 271 273 145 202 171 225 200 169 195 204 207 209 190 200 205 208 193
325 328 331 334 335 336 337 334 334 333 330 325 324 325 327 329 309 266 23 335 354 191 179 6 30 78 357 356 318 74 324 272 191 161 197 182 174 183 204 206 193 209 173 177 219 191 235
324 328 331 337 334 337 337 335 333 332 330 326 324 324 324 169 213 273 318 321 192 237 131 21 7 1 4 17 26 329 18 33 34 163 236 219 162 206 205 186 190 146 146 119 110 190 238
323 326 331 336 336 334 339 334 335 330 329 327 326 327 312 172 6 324 314 234 195 262 340 12 347 354 15 6 11 17 58 51 31 193 211 175 200 185 169 190 192 196 189 169 192 197 223
321 326 330 335 336 332 339 337 335 332 331 329 329 344 157 233 293 308 268 199 183 70 34 357 353 352 47 356 29 22 81 51 34 7 225 211 214 202 171 211 189 197 211 218 207 213 216
321 325 331 334 335 332 338 336 334 334 334 330 324 348 267 348 283 238 289 99 62 58 338 335 111 31 30 25 358 71 57 27 19 9 319 233 219 292 211 173 182 173 203 223 252 96 244
319 323 330 331 333 331 342 339 334 336 335 337 339 334 8 342 247 328 65 84 87 338 337 333 76 3 30 3 14 50 49 9 351 5 325 5 250 216 283 192 136 210 174 188 212 200 226
316 321 328 329 329 333 340 342 338 338 337 335 351 160 9 346 266 52 71 62 7 23 165 16 106 95 62 12 11 34 28 65 7 346 351 354 272 151 190 205 196 172 185 219 227 243 230
320 320 328 326 329 332 336 336 340 346 340 33 346 115 8 319 38 37 84 358 341 7 43 77 83 79 56 24 46 70 76 49 7 345 354 4 317 272 192 117 301 256 212 207 213 193 247
320 320 324 329 330 333 335 335 341 352 18 322 36 317 353 307 80 78 47 90 47 27 36 77 102 57 47 48 357 62 30 66 4 8 0 345 38 267 209 172 138 197 175 223 221 269 214
316 319 326 331 328 332 329 334 339 351 4 54 14 75 33 49 18 61 45 23 77 34 69 25 104 98 108 49 44 67 34 20 345 4 358 286 261 295 297 356 360 289 273 187 229 228 220
310 316 327 330 329 326 328 332 343 346 355 252 5 69 19 33 52 70 95 41 41 40 27 23 67 31 120 136 72 63 29 341 15 4 12 358 280 270 281 281 269 268 274 253 223 240 230
303 315 325 325 327 324 329 334 351 353 349 73 52 133 93 64 332 124 19 62 51 24 13 49 70 9 44 42 52 204 316 344 330 345 13 356 284 307 285 291 265 263 264 259 251 262 264
299 315 322 326 323 323 331 340 4 360 5 69 81 96 270 16 63 141 61 85 57 19 65 60 45 138 132 80 331 302 255 255 276 295 335 336 322 285 257 347 306 253 249 231 126 76 303
283 303 320 321 319 322 332 339 29 28 47 85 75 145 114 101 84 102 134 72 43 38 358 20 39 21 67 291 246 224 246 250 228 232 228 272 313 285 275 290 230 70 50 204 122 73 14
270 298 309 315 318 317 331 341 59 72 60 80 118 14 113 115 128 159 71 30 324 346 15 328 54 9 300 260 250 271 203 215 216 230 209 220 223 280 254 213 26 226 33 54 317 95 25
273 292 299 314 317 303 318 6 101 117 87 82 62 347 70 132 157 69 97 56 50 305 271 229 55 341 301 356 296 257 264 319 226 160 31 203 231 248 287 232 212 81 342 350 273 188 12
275 287 298 303 300 278 315 116 138 144 107 106 76 23 96 112 168 174 192 128 116 91 306 302 345 298 356 76 227 230 241 229 238 224 151 170 193 219 236 272 219 13 325 248 204 64 336
282 283 285 279 274 257 324 146 151 159 137 83 76 16 10 124 193 210 187 178 163 196 234 50 261 132 277 223 224 226 243 220 248 135 170 181 175 186 217 241 214 7 159 234 22 330 342
266 267 272 267 255 231 167 155 158 168 150 107 98 29 9 140 342 262 247 249 253 224 170 205 208 184 229 221 236 249 241 264 253 216 190 209 252 177 243 11 56 60 77 41 338 337 3